Location: *
(2.5500°S, 65.9667°W)
Time: 22:55:27
(UTC+00:00)

Explorer 11/Cluster Stage 4 - Visible Passes

Search period start: 16 April 2024 00:00
Search period end: 26 April 2024 00:00
Orbit: 465 x 1220 km, 28.8° (Epoch: 16 April)

Date Brightness Start Highest point End Pass type
(mag) Time Alt. Az. Time Alt. Az. Time Alt. Az.
19 Apr 7.6 23:58:35 10° SW 00:00:12 21° SSW 00:00:12 21° SSW visible
20 Apr 6.2 23:41:15 10° SW 23:44:40 41° S 23:44:40 41° S visible
21 Apr 5.8 23:23:53 10° SW 23:28:03 53° SSE 23:29:12 37° E visible
22 Apr 5.8 23:06:30 10° SW 23:10:57 65° SSE 23:13:48 17° ENE visible
23 Apr 5.8 22:49:05 10° WSW 22:53:49 78° SSE 22:57:44 10° ENE visible
24 Apr 8.8 00:39:30 10° WNW 00:40:12 12° NW 00:40:12 12° NW visible
24 Apr 8.9 09:43:36 10° NNW 09:49:05 30° NNE 09:55:26 10° E visible
25 Apr 8.6 00:22:43 10° NW 00:24:15 12° NNW 00:24:51 11° NNW visible
25 Apr 8.6 09:26:18 10° NNW 09:31:40 32° NNE 09:37:58 10° E visible
